Theta_e
332 332 332 332 332 332 326 327 331 332 335 333 333 330 330 330 329 327 326 321 316 315 314 314 313 313 310 309 309 308 306 306 303 303 306 307 307 307 308 310 314 314 315
331 331 332 333 331 329 329 331 335 334 332 330 329 328 324 322 320 320 318 317 315 313 313 312 312 312 307 307 308 307 306 305 304 301 303 305 305 305 305 307 309 312 310
328 329 327 328 328 328 331 329 330 329 327 328 328 325 322 319 317 316 316 314 312 312 311 310 310 309 307 306 305 305 305 307 304 303 301 302 302 303 303 303 304 304 309
330 330 329 329 330 329 327 326 326 327 326 321 315 314 315 315 315 315 314 311 311 310 310 309 310 309 307 305 306 305 305 303 300 299 299 301 302 304 300 300 300 301 302
326 324 323 322 323 323 322 321 321 320 317 313 312 311 311 312 312 309 307 306 305 306 307 308 309 313 318 314 307 305 302 301 302 298 297 297 296 297 297 299 297 299 300
323 322 322 322 320 319 319 317 315 314 313 312 310 310 309 309 306 309 307 304 305 304 303 305 306 310 310 313 312 311 308 303 298 296 300 297 295 296 297 298 297 296 295
320 320 320 320 320 320 320 320 317 314 310 308 306 305 302 303 304 303 304 298 298 299 302 302 304 305 305 304 307 308 308 308 308 304 300 301 299 297 296 296 296 296 295
314 314 315 316 316 318 318 316 314 311 305 304 304 303 301 302 302 301 301 296 295 296 299 301 301 300 301 298 296 296 296 296 297 299 299 299 298 299 298 300 298 296 297
311 313 316 316 314 313 311 309 308 308 306 304 304 300 298 297 301 299 297 295 296 295 297 298 299 298 301 299 295 294 294 295 301 304 303 302 301 301 302 300 298 298 300
313 314 316 315 312 309 308 307 306 307 306 305 302 299 301 297 299 298 297 295 294 295 296 296 301 298 299 298 294 293 293 294 295 297 297 298 298 298 303 299 299 297 300
316 316 314 313 311 309 308 306 305 305 304 302 300 298 297 297 297 298 297 295 294 294 294 294 295 298 297 297 297 295 295 296 296 294 294 295 295 296 296 296 297 298 297
317 317 314 312 311 308 305 304 303 302 300 298 298 298 297 295 298 297 297 297 298 293 293 293 294 296 295 296 297 297 297 297 294 293 293 293 293 294 296 296 296 297 299
315 313 312 310 308 306 303 302 301 300 299 298 296 293 292 293 292 296 295 296 297 293 294 296 296 295 295 296 297 297 297 293 292 291 291 292 293 297 299 300 301 300 297
310 310 309 308 306 304 303 302 300 299 298 296 295 292 291 291 291 292 293 293 295 295 296 295 297 296 296 296 295 295 295 293 293 291 292 297 299 301 301 302 301 301 299
309 308 308 303 302 298 296 295 297 295 298 297 296 294 291 291 292 293 293 294 293 293 293 293 293 292 291 291 292 293 293 293 292 294 295 297 300 300 300 302 301 300 299
307 307 305 302 303 299 295 295 294 294 293 294 294 296 294 293 294 293 293 292 292 292 292 291 291 290 290 290 290 292 291 293 295 295 297 299 299 299 299 300 300 299 298
303 303 304 303 301 299 295 295 294 295 296 294 293 293 293 293 293 293 294 295 293 293 292 290 290 290 290 290 290 290 290 291 294 296 297 298 299 300 299 299 299 298 300
303 300 307 306 306 301 299 296 295 297 296 295 296 295 295 294 293 293 295 295 296 297 295 292 291 291 290 290 290 289 290 291 294 295 296 297 299 300 299 298 298 297 298
302 300 302 300 300 300 304 303 301 300 296 295 296 296 296 295 295 294 296 298 296 296 296 296 295 293 290 290 290 289 289 290 292 293 294 295 298 300 299 299 299 294 295
300 299 298 302 304 304 304 300 298 295 294 293 293 293 294 294 294 297 297 297 295 294 296 294 293 292 289 288 288 289 289 290 291 292 292 294 296 299 299 298 298 298 297
306 305 301 306 305 303 302 300 298 295 293 292 291 290 285 292 292 292 292 293 293 292 292 292 291 290 289 288 287 290 291 289 288 290 291 292 294 297 300 299 298 298 298
304 304 303 300 299 299 297 295 293 293 292 292 291 291 287 291 291 290 290 291 291 291 292 292 291 291 288 287 287 288 290 288 289 289 289 291 293 295 299 299 298 296 296
302 299 298 297 296 295 294 293 292 292 291 291 291 290 290 289 289 289 290 291 291 293 294 293 291 289 289 288 288 288 288 286 287 287 287 289 291 294 298 298 299 297 295
302 300 298 297 296 294 294 293 292 291 291 290 290 289 289 289 290 294 294 294 295 295 295 295 290 288 288 287 287 286 287 285 285 287 288 288 290 294 299 299 299 299 297
300 298 297 296 295 293 293 292 291 291 290 290 289 289 289 290 290 291 294 294 295 295 295 293 288 287 287 286 285 286 285 285 285 285 287 288 291 298 297 300 301 300 298
297 298 297 295 294 293 293 292 291 291 290 290 289 289 289 289 289 290 290 291 291 292 291 288 288 287 286 285 285 284 285 285 284 284 286 291 297 299 296 297 301 301 299
Wind_Speed
15 15 13 10 1 8 6 8 9 1 3 4 5 5 6 5 5 5 5 8 7 7 6 6 5 4 3 3 1 1 1 2 3 3 2 2 3 3 5 5 5 5 5
7 5 4 4 8 5 7 9 5 7 7 7 9 8 5 6 4 5 6 6 6 6 6 6 4 2 3 1 2 2 3 3 3 4 2 2 3 2 2 2 3 3 4
5 5 7 7 7 6 4 7 8 9 10 7 8 7 4 6 5 7 6 5 7 6 5 4 1 1 1 2 1 2 1 1 2 2 3 1 2 2 3 2 3 4 4
7 7 7 6 8 10 10 9 8 7 7 9 9 9 8 8 9 6 6 6 7 5 5 4 3 2 3 3 3 3 1 1 1 1 2 2 2 2 1 2 4 2 4
10 11 10 10 12 13 11 8 7 7 7 9 9 10 9 8 5 7 6 6 6 6 6 5 5 7 8 4 0 2 1 1 2 2 2 2 3 3 3 2 3 3 4
11 10 10 11 12 10 6 6 7 9 8 8 8 9 10 6 10 12 8 6 6 6 6 6 6 8 8 10 9 6 3 2 2 0 1 2 4 4 3 3 2 2 4
11 10 9 9 8 5 5 8 7 8 8 8 7 9 9 7 13 14 13 7 7 7 6 6 5 4 7 5 6 5 4 4 5 3 4 4 4 4 2 4 3 4 5
6 7 6 6 6 5 8 8 8 7 8 7 7 7 8 6 11 12 11 6 6 6 6 6 5 5 5 7 6 6 6 6 5 3 4 6 6 7 5 6 5 4 4
6 6 6 6 7 7 8 7 6 8 7 6 5 7 8 6 10 11 9 6 7 7 6 7 7 5 5 9 6 6 7 6 5 8 9 10 11 12 10 2 3 2 3
5 5 6 6 8 7 7 7 4 6 6 5 6 6 9 7 8 9 7 4 6 5 7 7 11 7 6 6 4 4 6 5 7 10 9 8 8 7 9 3 4 4 3
5 6 7 6 7 6 6 4 5 7 7 6 7 5 6 7 8 10 8 5 3 3 3 3 4 8 7 8 6 4 4 6 8 5 5 5 5 5 5 4 5 4 4
5 7 5 6 5 5 7 6 6 6 7 6 6 5 5 5 7 7 7 5 2 2 2 1 3 8 8 8 6 6 10 7 4 4 4 4 4 5 6 5 7 6 6
4 6 6 6 6 5 6 6 4 5 5 4 4 4 2 3 4 6 5 3 3 1 1 2 6 9 9 7 7 8 7 4 4 4 4 4 4 6 7 6 6 7 6
4 5 5 6 6 6 4 4 4 4 4 4 3 3 2 1 2 3 4 5 4 1 2 3 3 2 3 4 4 5 4 4 4 4 4 6 6 6 7 7 7 7 6
4 4 5 4 6 5 5 4 3 1 2 4 3 3 2 1 2 3 3 4 3 2 2 3 3 3 4 4 4 4 5 5 5 6 6 7 7 7 7 7 6 7 6
5 4 4 4 4 4 3 3 7 5 5 2 3 3 1 1 3 5 7 4 3 3 3 3 3 3 4 4 4 4 4 8 7 6 7 7 7 8 9 8 7 6 5
4 4 4 4 4 3 2 3 3 4 6 6 6 5 3 1 2 6 7 5 7 4 4 3 2 3 3 4 4 4 5 6 8 6 7 7 8 8 9 8 8 7 6
6 7 4 4 4 3 3 3 2 1 1 3 4 4 8 9 5 5 3 6 4 4 3 3 2 3 3 4 4 4 5 6 7 7 7 7 8 9 9 9 8 8 7
5 4 4 4 2 2 3 3 3 4 4 3 4 6 7 8 9 10 10 4 2 4 3 3 3 3 3 3 4 5 5 5 7 7 7 7 8 8 9 8 8 9 9
3 7 5 3 4 4 4 4 4 4 4 4 4 4 4 5 5 5 5 4 5 4 4 4 4 4 3 4 5 5 4 5 7 7 7 7 7 6 7 8 8 8 7
4 3 6 5 5 4 4 4 4 4 3 3 3 2 4 4 4 4 4 4 4 4 4 4 3 3 4 4 5 5 5 5 5 6 6 7 6 7 6 5 6 7 6
4 4 5 4 4 4 4 4 4 4 3 4 3 4 6 4 4 4 4 4 4 3 3 3 4 3 4 4 4 5 6 6 6 7 7 7 6 6 5 5 5 5 5
5 5 4 3 5 6 5 4 4 4 4 4 3 4 4 3 3 3 3 3 3 3 3 3 4 4 4 4 4 4 5 6 7 6 7 7 7 5 5 4 3 3 4
6 5 5 4 4 4 5 4 4 5 4 3 3 3 2 2 2 3 3 3 3 4 3 3 4 5 5 5 5 5 5 7 6 7 8 6 7 7 3 3 3 3 3
5 5 4 5 5 5 5 5 4 4 3 2 2 1 2 3 3 4 4 3 3 4 5 5 4 6 7 8 9 12 11 11 9 9 6 6 7 9 5 2 2 1 2
4 5 5 4 4 4 4 5 4 4 3 2 1 1 1 2 2 3 4 4 4 4 5 4 5 8 8 6 11 15 13 14 12 12 7 5 6 5 5 4 3 2 1
Wind_Direction
104 118 131 152 348 326 125 228 268 19 175 107 118 91 76 86 74 102 97 106 116 123 148 127 106 133 118 82 60 84 144 160 191 305 258 283 293 335 332 339 344 341 343
111 150 235 19 74 131 169 217 204 98 81 103 106 98 102 93 106 96 115 119 121 115 88 85 104 102 73 108 177 197 204 198 155 221 272 302 278 318 298 333 325 318 316
51 47 37 50 102 126 99 89 101 109 116 107 97 87 82 59 44 69 82 81 80 84 92 88 103 150 209 244 323 310 205 135 163 162 264 317 290 319 326 334 300 307 302
58 71 79 81 85 85 72 65 68 80 81 67 58 73 69 76 69 78 80 71 64 63 57 37 20 6 306 310 289 287 308 138 145 165 230 276 253 284 285 267 301 264 289
69 67 69 73 79 80 78 76 77 69 67 81 86 63 62 66 62 63 58 61 53 38 25 15 1 334 308 265 328 345 49 33 23 26 343 312 312 330 282 284 270 280 278
77 82 87 88 91 93 96 84 84 95 88 84 76 78 70 65 65 70 72 64 53 43 20 7 2 21 19 31 33 58 56 40 9 133 250 252 270 245 250 250 237 279 303
93 90 89 93 90 83 86 86 88 92 94 77 65 71 62 55 67 65 62 54 50 38 33 15 13 13 43 48 28 23 10 11 251 238 253 251 246 238 244 271 255 234 241
73 85 82 81 80 76 79 82 75 79 82 79 69 64 72 55 69 68 64 60 54 45 32 24 34 10 14 32 13 7 351 332 332 312 260 265 251 278 237 252 258 253 276
78 82 89 89 82 78 82 80 75 86 71 73 82 82 81 58 64 61 60 49 46 37 25 22 17 348 357 21 25 5 348 335 319 320 307 287 276 269 259 242 259 211 261
95 96 84 84 91 87 97 87 71 92 103 101 86 74 76 67 51 71 73 64 56 29 17 9 7 23 28 15 34 2 348 312 337 341 333 328 328 316 332 225 277 272 261
102 101 96 93 94 97 81 75 88 92 90 85 87 70 70 67 56 69 68 75 93 63 38 1 343 351 24 32 49 24 301 306 317 315 308 314 320 318 314 307 271 247 261
59 88 89 82 81 77 93 85 79 92 89 79 83 61 45 49 51 44 55 68 170 98 31 299 320 11 10 15 23 355 357 346 323 319 320 309 303 300 294 281 277 262 233
38 65 71 68 75 85 94 97 85 88 95 91 91 90 59 22 12 358 6 9 22 100 279 322 33 16 3 3 348 353 339 336 323 325 311 284 268 280 289 278 277 263 260
61 86 85 94 83 63 62 80 102 101 102 118 127 112 75 34 339 319 346 5 351 342 358 12 10 326 312 308 348 343 329 325 323 300 292 300 286 304 308 295 286 285 271
82 106 90 88 87 86 57 41 97 65 174 155 180 165 132 44 300 328 319 333 317 302 4 28 13 8 349 341 337 333 325 330 328 322 313 312 315 311 305 312 293 293 275
94 105 121 111 92 83 103 79 43 69 65 65 145 157 237 216 345 328 342 335 321 160 57 32 6 346 334 335 341 327 317 337 333 325 323 324 322 320 319 323 319 313 295
97 103 121 123 124 142 132 111 113 349 47 63 53 65 45 329 338 343 7 39 47 51 62 48 54 4 327 344 347 331 317 321 320 333 332 329 328 328 340 336 339 343 342
70 67 104 125 131 152 150 132 133 154 58 349 356 14 6 352 338 307 326 65 42 32 57 65 43 8 356 358 342 332 323 329 346 339 338 333 335 339 347 348 350 356 348
94 95 118 130 139 127 92 80 62 65 60 37 3 13 8 25 41 29 41 52 48 40 22 36 18 17 22 2 334 326 322 336 340 339 336 333 337 342 353 354 355 2 359
73 92 86 88 80 69 71 78 77 72 62 50 35 4 346 39 35 23 29 42 37 24 16 20 5 5 14 20 336 325 329 348 347 343 337 332 334 334 353 358 3 3 5
81 91 99 76 79 78 93 92 89 85 83 75 56 29 53 68 48 36 19 19 39 33 12 10 3 350 328 8 346 337 338 327 332 337 331 329 331 333 348 350 357 1 5
96 79 76 95 105 96 85 82 81 89 90 88 55 37 42 51 49 37 22 15 353 352 37 15 11 11 351 346 341 336 340 336 340 339 329 323 322 324 334 348 355 2 7
100 110 111 92 95 102 94 94 96 90 84 74 67 56 42 41 36 29 13 350 338 325 11 34 18 351 343 352 351 338 339 334 327 320 318 319 315 318 325 336 347 359 4
143 135 122 121 128 125 120 113 107 97 95 82 70 56 36 10 349 0 359 351 355 1 9 38 26 0 354 358 353 346 347 337 315 305 310 302 305 310 313 336 350 27 31
125 138 144 145 143 136 128 121 122 123 121 113 83 46 5 18 21 4 357 359 6 13 32 45 14 3 0 355 0 353 338 333 325 307 300 286 285 303 322 303 329 73 56
133 155 144 145 139 149 142 138 153 160 167 173 155 80 41 22 4 3 5 13 17 24 46 20 12 11 2 357 356 349 339 340 337 331 315 307 327 328 336 344 24 95 162